Location: Ecklingerode
(51.5036°N, 10.3122°E)
Time: 07:42:40
(UTC+00:00)

BREEZE-M TANK - Pass Details

Date: 29 October 2020
Orbit: 552 x 24734 km, 45.2° (Epoch: 01 December)

Event Time Altitude Azimuth Distance (km) Brightness Sun altitude
Rises 17:06:43 0° 267° (W) 7,744 10.3 -11.4°
Reaches altitude 10° 17:13:51 10° 263° (W) 4,664 8.5 -12.5°
Maximum altitude 17:22:21 45° 194° (SSW) 1,139 4.0 -13.8°
Enters shadow 17:25:09 16° 124° (SE) 1,649 4.3 -14.2°
